Alert Airport,

2:03 PM MDT on April 21, 2018 (GMT -0600)
Alert Airport

Weather History for CYLT - September, 2012

Change the Weather History Date:

Monday, September 17, 2012

  Actual Average Record
Temperature  
Mean Temperature 18 °F -  
Max Temperature 23 °F - - ()
Min Temperature 12 °F - - ()
Degree Days  
Heating Degree Days 48    
Moisture  
Dew Point 13 °F    
Average Humidity 88    
Maximum Humidity 93    
Minimum Humidity 79    
Precipitation  
Precipitation 0.00 in - - ()
Sea Level Pressure  
Sea Level Pressure 30.20 in    
Wind  
Wind Speed 1 mph ()    
Max Wind Speed 6 mph    
Max Gust Speed -    
Visibility 15.0 miles    
Events      
T = Trace of Precipitation, MM = Missing Value Source: Averaged Metar Reports

Daily Weather History Graph

Daily Weather History Graph

Search for Another Location

Airport or City:

Astronomy

Sep. 17, 2012 Rise Set
Actual Time 2:33 AM MDT 5:25 PM MDT
Civil Twilight 10:35 PM MDT 9:30 PM MDT
Nautical Twilight Sun does not set Sun does not set
Astronomical Twilight Sun does not set Sun does not set
Moon No Moon Rise No Moon Set
Length of Visible Light 22h 54m
Length of Day
14h 52m
Waxing Crescent, 4% of the Moon is Illuminated
Sep 17
Waxing Crescent
Sep 22
First Quarter
Sep 29
Full
Oct 8
Last Quarter
Oct 15
New

Hourly Weather History & Observations

Time (MDT) Temp. Windchill Dew Point Humidity Pressure Visibility Wind Dir Wind Speed Gust Speed Precip Events Conditions
1:00 AM 15.8 °F - 14.0 °F 93% 30.12 in 15.0 mi Calm Calm - N/A   Partly Cloudy
2:00 AM 15.8 °F - 12.2 °F 86% 30.14 in 15.0 mi Calm Calm - N/A   Partly Cloudy
3:00 AM 14.0 °F 5.1 °F 12.2 °F 93% 30.15 in 15.0 mi NW 5.8 mph - N/A   Partly Cloudy
4:00 AM 15.8 °F - 14.0 °F 93% 30.17 in 15.0 mi Calm Calm - N/A   Partly Cloudy
5:00 AM 15.8 °F - 14.0 °F 93% 30.18 in 15.0 mi WSW 2.3 mph - N/A   Partly Cloudy
6:00 AM 17.6 °F - 14.0 °F 86% 30.19 in 15.0 mi Calm Calm - N/A   Partly Cloudy
7:00 AM 15.8 °F - 14.0 °F 93% 30.20 in 15.0 mi Calm Calm - N/A   Partly Cloudy
8:00 AM 15.8 °F - 14.0 °F 93% 30.21 in 15.0 mi South 2.3 mph - N/A   Partly Cloudy
9:00 AM 17.6 °F - 15.8 °F 93% 30.21 in 15.0 mi SE 2.3 mph - N/A   Scattered Clouds
10:00 AM 23.0 °F - 17.6 °F 80% 30.21 in 15.0 mi South 2.3 mph - N/A   Partly Cloudy
11:00 AM 15.8 °F - 12.2 °F 86% 30.22 in 15.0 mi North 2.3 mph - N/A   Scattered Clouds
1:00 PM 19.4 °F - 14.0 °F 80% 30.22 in 15.0 mi Calm Calm - N/A   Partly Cloudy
2:00 PM 17.6 °F - 14.0 °F 86% 30.23 in 15.0 mi South 2.3 mph - N/A   Partly Cloudy
3:00 PM 14.0 °F - 8.6 °F 79% 30.22 in 15.0 mi North 2.3 mph - N/A   Partly Cloudy
4:00 PM 17.6 °F - 14.0 °F 86% 30.23 in 15.0 mi Calm Calm - N/A   Partly Cloudy
5:00 PM 14.0 °F - 10.4 °F 86% 30.23 in 15.0 mi Calm Calm - N/A   Scattered Clouds
6:00 PM 12.2 °F - 10.4 °F 92% 30.22 in 15.0 mi Calm Calm - N/A   Scattered Clouds
7:00 PM 14.0 °F 8.2 °F 10.4 °F 86% 30.22 in 15.0 mi South 3.5 mph - N/A   Scattered Clouds
8:00 PM 15.8 °F - 12.2 °F 86% 30.21 in 15.0 mi Calm Calm - N/A   Scattered Clouds
9:00 PM 14.0 °F - 12.2 °F 93% 30.20 in 15.0 mi Calm Calm - N/A   Partly Cloudy
10:00 PM 12.2 °F 6.1 °F 8.6 °F 85% 30.19 in 15.0 mi SSE 3.5 mph - N/A   Partly Cloudy
11:00 PM 12.2 °F - 8.6 °F 85% 30.18 in 15.0 mi Calm Calm - N/A   Partly Cloudy